• In Hungary
  • List of Countries
  • For 7 days
  • Water Temperature
  • Satellite Maps
  • Weather Map
  • News
  • Weather Widgets
  • user-avatar
    Login

    Hourly Weather Cochabamba

    Today, 19 October, Friday

    Time Temperature Precipitation Wind Pressure Humidity
    00:00 +18°C° 0.4 mm 1 mps 555 mmHg 70%
    01:00 +18°C° 0.4 mm 1 mps 555 mmHg 70%
    02:00 +17°C° 0.4 mm 2 mps 555 mmHg 70%
    03:00 +18°C° 0.1 mm 1 mps 555 mmHg 69%
    04:00 +18°C° 0.1 mm 1 mps 555 mmHg 69%
    05:00 +16°C° 0.1 mm 1 mps 554 mmHg 68%
    06:00 +18°C° 0.1 mm 1 mps 555 mmHg 65%
    07:00 +19°C° 0.1 mm 1 mps 556 mmHg 61%
    08:00 +20°C° 0.1 mm 1 mps 556 mmHg 58%
    09:00 +21°C° 0.3 mm 1 mps 557 mmHg 54%
    10:00 +21°C° 0.3 mm 2 mps 557 mmHg 50%
    11:00 +24°C° 0.3 mm 2 mps 558 mmHg 46%
    12:00 +24°C° 1 mm 2 mps 557 mmHg 48%
    13:00 +24°C° 1 mm 3 mps 557 mmHg 50%
    14:00 +23°C° 1 mm 4 mps 556 mmHg 52%
    15:00 +22°C° 1.8 mm 4 mps 555 mmHg 55%
    16:00 +21°C° 1.8 mm 4 mps 555 mmHg 59%
    17:00 +20°C° 1.8 mm 4 mps 554 mmHg 62%
    18:00 +19°C° 0.5 mm 3 mps 555 mmHg 65%
    19:00 +18°C° 0.5 mm 3 mps 555 mmHg 68%
    20:00 +17°C° 0.5 mm 2 mps 555 mmHg 71%
    21:00 +17°C° 0.4 mm 2 mps 555 mmHg 72%
    22:00 +17°C° 0.4 mm 2 mps 555 mmHg 74%
    23:00 +16°C° 0.4 mm 2 mps 556 mmHg 75%

    Tomorrow, 20 October, Saturday

    Time Temperature Precipitation Wind Pressure Humidity
    00:00 +16°C° 0.2 mm 2 mps 555 mmHg 75%
    01:00 +16°C° 0.2 mm 1 mps 555 mmHg 75%
    02:00 +16°C° 0.2 mm 1 mps 555 mmHg 75%
    03:00 +16°C° 0.2 mm 1 mps 555 mmHg 76%
    04:00 +16°C° 0.2 mm 1 mps 555 mmHg 77%
    05:00 +15°C° 0.2 mm 1 mps 555 mmHg 78%
    06:00 +16°C° 0.2 mm 1 mps 555 mmHg 77%
    07:00 +16°C° 0.2 mm 1 mps 556 mmHg 75%
    08:00 +16°C° 0.2 mm 1 mps 556 mmHg 74%
    09:00 +18°C° 0.3 mm 1 mps 556 mmHg 70%
    10:00 +19°C° 0.3 mm 1 mps 557 mmHg 65%
    11:00 +20°C° 0.3 mm 1 mps 557 mmHg 61%
    12:00 +19°C° 0.5 mm 2 mps 557 mmHg 60%
    13:00 +20°C° 0.5 mm 2 mps 556 mmHg 59%
    14:00 +20°C° 0.5 mm 2 mps 556 mmHg 57%
    15:00 +20°C° 0.4 mm 2 mps 555 mmHg 58%
    16:00 +20°C° 0.4 mm 2 mps 555 mmHg 59%
    17:00 +20°C° 0.4 mm 2 mps 554 mmHg 60%
    18:00 +19°C° 0.3 mm 2 mps 555 mmHg 63%
    19:00 +18°C° 0.3 mm 2 mps 555 mmHg 66%
    20:00 +18°C° 0.3 mm 1 mps 555 mmHg 69%
    21:00 +17°C° 0.2 mm 2 mps 555 mmHg 69%
    22:00 +17°C° 0.2 mm 2 mps 555 mmHg 70%
    23:00 +16°C° 0.2 mm 2 mps 555 mmHg 70%

    Day after tomorrow, 21 October, Sunday

    Time Temperature Precipitation Wind Pressure Humidity
    00:00 +16°C° 0.1 mm 2 mps 555 mmHg 71%
    01:00 +16°C° 0.1 mm 1 mps 554 mmHg 71%
    02:00 +16°C° 0.1 mm 1 mps 554 mmHg 72%
    03:00 +15°C° 0.1 mm 1 mps 553 mmHg 73%
    04:00 +15°C° 0.1 mm 1 mps 553 mmHg 75%
    05:00 +14°C° 0.1 mm 0 mps 553 mmHg 76%
    06:00 +15°C° 0.1 mm 1 mps 554 mmHg 72%
    07:00 +16°C° 0.1 mm 1 mps 555 mmHg 69%
    08:00 +18°C° 0.1 mm 1 mps 556 mmHg 65%
    09:00 +19°C° 0.3 mm 1 mps 556 mmHg 62%
    10:00 +20°C° 0.3 mm 1 mps 556 mmHg 59%
    11:00 +20°C° 0.3 mm 2 mps 557 mmHg 55%
    12:00 +21°C° 0.4 mm 2 mps 556 mmHg 55%
    13:00 +21°C° 0.4 mm 2 mps 556 mmHg 54%
    14:00 +22°C° 0.4 mm 3 mps 555 mmHg 53%
    15:00 +21°C° 0.5 mm 3 mps 555 mmHg 55%
    16:00 +21°C° 0.5 mm 3 mps 554 mmHg 58%
    17:00 +20°C° 0.5 mm 3 mps 554 mmHg 60%
    18:00 +19°C° 0.5 mm 3 mps 554 mmHg 64%
    19:00 +18°C° 0.5 mm 3 mps 554 mmHg 69%
    20:00 +17°C° 0.5 mm 2 mps 554 mmHg 73%
    21:00 +17°C° 0.2 mm 2 mps 554 mmHg 74%
    22:00 +16°C° 0.2 mm 1 mps 555 mmHg 75%
    23:00 +16°C° 0.2 mm 1 mps 555 mmHg 75%

    22 October, Monday

    Time Temperature Precipitation Wind Pressure Humidity
    00:00 +16°C° 0.1 mm 1 mps 554 mmHg 76%
    01:00 +16°C° 0.1 mm 1 mps 554 mmHg 76%
    02:00 +15°C° 0.1 mm 1 mps 553 mmHg 76%
    03:00 +15°C° 0.2 mm 1 mps 553 mmHg 77%
    04:00 +15°C° 0.2 mm 1 mps 553 mmHg 77%
    05:00 +15°C° 0.2 mm 1 mps 553 mmHg 78%
    06:00 +16°C° 0.3 mm 1 mps 554 mmHg 75%
    07:00 +16°C° 0.3 mm 1 mps 555 mmHg 73%
    08:00 +18°C° 0.3 mm 1 mps 555 mmHg 70%
    09:00 +19°C° 0.4 mm 1 mps 556 mmHg 66%
    10:00 +18°C° 0.4 mm 2 mps 556 mmHg 62%
    11:00 +19°C° 0.4 mm 2 mps 556 mmHg 57%
    12:00 +20°C° 0.4 mm 3 mps 556 mmHg 57%
    13:00 +20°C° 0.4 mm 3 mps 555 mmHg 57%
    14:00 +20°C° 0.4 mm 3 mps 555 mmHg 56%
    15:00 +20°C° 0.4 mm 3 mps 554 mmHg 59%
    16:00 +19°C° 0.4 mm 3 mps 554 mmHg 61%
    17:00 +19°C° 0.4 mm 3 mps 553 mmHg 63%
    18:00 +18°C° 0.3 mm 3 mps 554 mmHg 66%
    19:00 +17°C° 0.3 mm 3 mps 554 mmHg 69%
    20:00 +17°C° 0.3 mm 2 mps 554 mmHg 71%
    21:00 +16°C° 0.2 mm 2 mps 554 mmHg 71%
    22:00 +16°C° 0.2 mm 2 mps 554 mmHg 71%
    23:00 +16°C° 0.2 mm 2 mps 554 mmHg 71%

    23 October, Tuesday

    Time Temperature Precipitation Wind Pressure Humidity
    00:00 +16°C° 0.1 mm 2 mps 554 mmHg 72%
    01:00 +15°C° 0.1 mm 2 mps 553 mmHg 72%
    02:00 +15°C° 0.1 mm 2 mps 553 mmHg 72%
    03:00 +15°C° 0.1 mm 2 mps 553 mmHg 73%
    04:00 +15°C° 0.1 mm 1 mps 553 mmHg 73%
    05:00 +15°C° 0.1 mm 1 mps 553 mmHg 73%
    06:00 +16°C° 0.1 mm 2 mps 554 mmHg 70%
    07:00 +16°C° 0.1 mm 2 mps 555 mmHg 66%
    08:00 +17°C° 0.1 mm 2 mps 555 mmHg 62%
    09:00 +18°C° 0.2 mm 2 mps 555 mmHg 60%
    10:00 +19°C° 0.2 mm 3 mps 556 mmHg 57%
    11:00 +20°C° 0.2 mm 3 mps 556 mmHg 55%
    12:00 +21°C° 0.2 mm 4 mps 555 mmHg 54%
    13:00 +21°C° 0.2 mm 4 mps 555 mmHg 54%
    14:00 +22°C° 0.2 mm 4 mps 554 mmHg 53%
    15:00 +21°C° 0.2 mm 4 mps 554 mmHg 56%
    16:00 +20°C° 0.2 mm 4 mps 554 mmHg 60%
    17:00 +20°C° 0.2 mm 4 mps 553 mmHg 63%
    18:00 +19°C° 0.2 mm 4 mps 553 mmHg 67%
    19:00 +18°C° 0.2 mm 3 mps 554 mmHg 71%
    20:00 +17°C° 0.2 mm 3 mps 554 mmHg 75%
    21:00 +16°C° 0.2 mm 3 mps 554 mmHg 75%
    22:00 +16°C° 0.2 mm 2 mps 554 mmHg 75%
    23:00 +16°C° 0.2 mm 2 mps 554 mmHg 75%

    24 October, Wednesday

    Time Temperature Precipitation Wind Pressure Humidity
    00:00 +16°C° 0.2 mm 2 mps 554 mmHg 75%
    01:00 +16°C° 0.2 mm 2 mps 554 mmHg 75%
    02:00 +16°C° 0.2 mm 1 mps 553 mmHg 75%
    03:00 +15°C° 0.6 mm 1 mps 553 mmHg 75%
    04:00 +15°C° 0.6 mm 1 mps 554 mmHg 76%
    05:00 +15°C° 0.6 mm 1 mps 554 mmHg 76%
    06:00 +15°C° 1.6 mm 1 mps 554 mmHg 76%
    07:00 +16°C° 1.6 mm 1 mps 555 mmHg 75%
    08:00 +16°C° 1.6 mm 1 mps 555 mmHg 75%
    09:00 +16°C° 1.3 mm 1 mps 555 mmHg 73%
    10:00 +16°C° 1.3 mm 1 mps 555 mmHg 72%
    11:00 +16°C° 1.3 mm 1 mps 555 mmHg 70%
    12:00 +17°C° 0.6 mm 2 mps 555 mmHg 67%
    13:00 +18°C° 0.6 mm 2 mps 555 mmHg 64%
    14:00 +19°C° 0.6 mm 3 mps 555 mmHg 61%
    15:00 +19°C° 0.5 mm 3 mps 555 mmHg 63%
    16:00 +19°C° 0.5 mm 3 mps 554 mmHg 65%
    17:00 +18°C° 0.5 mm 3 mps 554 mmHg 67%
    18:00 +18°C° 0.5 mm 3 mps 554 mmHg 70%
    19:00 +17°C° 0.5 mm 2 mps 554 mmHg 73%
    20:00 +16°C° 0.5 mm 2 mps 554 mmHg 75%
    21:00 +16°C° 0.6 mm 2 mps 554 mmHg 75%
    22:00 +16°C° 0.6 mm 1 mps 555 mmHg 75%
    23:00 +16°C° 0.6 mm 1 mps 555 mmHg 75%
    Show more